Weatherford, OK

7:13 AM CDT on September 22, 2017 (GMT -0500)
Weatherford

Weather History for KOJA - May, 2013

Change the Weather History Date:

Thursday, May 30, 2013

  Actual Average (KJWG) Record (KJWG)
Temperature  
Mean Temperature 78 °F -  
Max Temperature 89 °F 84 °F 103 °F (1985)
Min Temperature 68 °F 61 °F 45 °F (1992)
Cooling Degree Days 14    
Growing Degree Days 28 (Base 50)    
Moisture  
Dew Point 64 °F    
Average Humidity 67    
Maximum Humidity 94    
Minimum Humidity 22    
Precipitation  
Precipitation 0.00 in - - ()
Sea Level Pressure  
Sea Level Pressure 29.64 in    
Wind  
Wind Speed 19 mph (SSW)    
Max Wind Speed 26 mph    
Max Gust Speed 38 mph    
Visibility 10 miles    
Events      
Averages and records for this station are not official NWS values.
T = Trace of Precipitation, MM = Missing Value Source: NWS Daily Summary

Daily Weather History Graph

Daily Weather History Graph

Search for Another Location

Airport or City:

Trip Planner

Search our weather history database for the weather conditions in past years. The results will help you decide how hot, cold, wet, or windy it might be!

Date:

Astronomy

May. 30, 2013 Rise Set
Actual Time 6:21 AM CDT 8:43 PM CDT
Civil Twilight 5:51 AM CDT 9:13 PM CDT
Nautical Twilight 5:15 AM CDT 9:49 PM CDT
Astronomical Twilight 4:36 AM CDT 10:29 PM CDT
Moon 12:52 AM CDT (5/30) 12:22 PM CDT (5/30)
Length of Visible Light 15h 21m
Length of Day
14h 22m
Waning Gibbous, 62% of the Moon is Illuminated
May 30
Waning Gibbous
May 31
Last Quarter
Jun 8
New
Jun 16
First Quarter
Jun 23
Full

Hourly Weather History & Observations

Time (CDT) Temp. Heat Index Dew Point Humidity Pressure Visibility Wind Dir Wind Speed Gust Speed Precip Events Conditions
12:15 AM 68.0 °F - 66.2 °F 94% 29.66 in 10.0 mi SSE 18.4 mph 26.5 mph N/A   Overcast
12:35 AM 68.0 °F - 66.2 °F 94% 29.65 in 10.0 mi SSE 23.0 mph 31.1 mph N/A   Overcast
12:55 AM 69.8 °F - 66.2 °F 88% 29.64 in 10.0 mi SSE 24.2 mph 32.2 mph N/A   Overcast
1:15 AM 69.8 °F - 66.2 °F 88% 29.64 in 10.0 mi South 24.2 mph 33.4 mph N/A   Overcast
1:35 AM 69.8 °F - 68.0 °F 94% 29.63 in 10.0 mi South 25.3 mph 32.2 mph N/A   Overcast
1:55 AM 69.8 °F - 68.0 °F 94% 29.62 in 10.0 mi SSE 24.2 mph 33.4 mph N/A   Overcast
2:15 AM 69.8 °F - 68.0 °F 94% 29.60 in 10.0 mi South 23.0 mph 33.4 mph N/A   Overcast
2:35 AM 69.8 °F - 68.0 °F 94% 29.59 in 10.0 mi South 18.4 mph 29.9 mph N/A   Mostly Cloudy
2:55 AM 71.6 °F - 68.0 °F 88% 29.58 in 10.0 mi South 26.5 mph 33.4 mph N/A   Overcast
3:15 AM 71.6 °F - 68.0 °F 88% 29.57 in 10.0 mi South 23.0 mph 33.4 mph N/A   Mostly Cloudy
3:35 AM 71.6 °F - 68.0 °F 88% 29.57 in 10.0 mi South 24.2 mph 38.0 mph N/A   Clear
3:55 AM 71.6 °F - 68.0 °F 88% 29.57 in 10.0 mi South 21.9 mph 29.9 mph N/A   Clear
4:15 AM 71.6 °F - 68.0 °F 88% 29.57 in 10.0 mi South 19.6 mph 27.6 mph N/A   Scattered Clouds
4:35 AM 71.6 °F - 68.0 °F 88% 29.58 in 10.0 mi South 16.1 mph 29.9 mph N/A   Overcast
4:55 AM 71.6 °F - 68.0 °F 88% 29.58 in 10.0 mi South 25.3 mph 29.9 mph N/A   Overcast
5:15 AM 71.6 °F - 68.0 °F 88% 29.58 in 10.0 mi South 18.4 mph 31.1 mph N/A   Mostly Cloudy
5:35 AM 73.4 °F - 68.0 °F 83% 29.59 in 10.0 mi South 24.2 mph 34.5 mph N/A   Overcast
5:55 AM 73.4 °F - 68.0 °F 83% 29.59 in 10.0 mi South 20.7 mph 28.8 mph N/A   Overcast
6:15 AM 73.4 °F - 68.0 °F 83% 29.61 in 10.0 mi South 18.4 mph 26.5 mph N/A   Overcast
6:35 AM 73.4 °F - 68.0 °F 83% 29.61 in 10.0 mi South 23.0 mph 29.9 mph N/A   Overcast
6:55 AM 73.4 °F - 68.0 °F 83% 29.62 in 10.0 mi South 16.1 mph 29.9 mph N/A   Overcast
7:15 AM 73.4 °F - 68.0 °F 83% 29.63 in 10.0 mi South 19.6 mph 28.8 mph N/A   Overcast
7:35 AM 73.4 °F - 68.0 °F 83% 29.64 in 10.0 mi South 18.4 mph 32.2 mph N/A   Mostly Cloudy
7:55 AM 73.4 °F - 68.0 °F 83% 29.65 in 10.0 mi South 23.0 mph 33.4 mph N/A   Scattered Clouds
8:15 AM 73.4 °F - 68.0 °F 83% 29.65 in 10.0 mi South 21.9 mph 33.4 mph N/A   Mostly Cloudy
8:35 AM 75.2 °F - 69.8 °F 83% 29.66 in 10.0 mi SSW 17.3 mph 33.4 mph N/A   Scattered Clouds
8:55 AM 73.4 °F - 68.0 °F 83% 29.67 in 10.0 mi SSW 16.1 mph 29.9 mph N/A   Clear
9:15 AM 75.2 °F - 68.0 °F 78% 29.66 in 10.0 mi SSW 24.2 mph 32.2 mph N/A   Clear
9:35 AM 77.0 °F - 68.0 °F 74% 29.68 in 10.0 mi SSW 21.9 mph 29.9 mph N/A   Clear
9:55 AM 77.0 °F - 69.8 °F 78% 29.68 in 10.0 mi SSW 17.3 mph 27.6 mph N/A   Clear
10:15 AM 77.0 °F - 69.8 °F 78% 29.69 in 10.0 mi SW 13.8 mph 24.2 mph N/A   Mostly Cloudy
10:35 AM 77.0 °F - 66.2 °F 69% 29.69 in 10.0 mi WSW 11.5 mph - N/A   Scattered Clouds
10:55 AM 78.8 °F - 68.0 °F 69% 29.70 in 10.0 mi SW 11.5 mph - N/A   Clear
11:15 AM 78.8 °F - 66.2 °F 65% 29.70 in 10.0 mi SW 13.8 mph 20.7 mph N/A   Scattered Clouds
11:35 AM 80.6 °F 82.7 °F 66.2 °F 61% 29.69 in 10.0 mi SW 18.4 mph 25.3 mph N/A   Clear
11:55 AM 82.4 °F 83.9 °F 64.4 °F 54% 29.70 in 10.0 mi WSW 16.1 mph 25.3 mph N/A   Clear
12:15 PM 82.4 °F 83.4 °F 62.6 °F 51% 29.69 in 10.0 mi WSW 12.7 mph 24.2 mph N/A   Clear
12:35 PM 82.4 °F 82.9 °F 60.8 °F 48% 29.69 in 10.0 mi West 17.3 mph 21.9 mph N/A   Clear
12:55 PM 84.2 °F 83.8 °F 59.0 °F 42% 29.69 in 10.0 mi West 12.7 mph 19.6 mph N/A   Clear
1:15 PM 82.4 °F 82.9 °F 60.8 °F 48% 29.69 in 10.0 mi West 11.5 mph - N/A   Clear
1:35 PM 84.2 °F 85.0 °F 62.6 °F 48% 29.68 in 10.0 mi West 9.2 mph - N/A   Clear
1:55 PM 86.0 °F 86.1 °F 60.8 °F 43% 29.67 in 10.0 mi West 11.5 mph 16.1 mph N/A   Clear
2:15 PM 86.0 °F 86.1 °F 60.8 °F 43% 29.67 in 10.0 mi West 9.2 mph - N/A   Clear
2:35 PM 86.0 °F 86.1 °F 60.8 °F 43% 29.66 in 10.0 mi West 6.9 mph - N/A   Clear
2:55 PM 87.8 °F 87.1 °F 59.0 °F 38% 29.66 in 10.0 mi SSW 11.5 mph - N/A   Clear
3:15 PM 87.8 °F 85.7 °F 53.6 °F 31% 29.66 in 10.0 mi West 12.7 mph 19.6 mph N/A   Clear
3:35 PM 89.6 °F 87.3 °F 53.6 °F 29% 29.65 in 10.0 mi West 12.7 mph 20.7 mph N/A   Clear
3:55 PM 89.6 °F 87.3 °F 53.6 °F 29% 29.65 in 10.0 mi West 9.2 mph 17.3 mph N/A   Clear
4:15 PM 89.6 °F 87.3 °F 53.6 °F 29% 29.64 in 10.0 mi West 11.5 mph 17.3 mph N/A   Clear
4:35 PM 89.6 °F - 50.0 °F 26% 29.65 in 10.0 mi West 11.5 mph 18.4 mph N/A   Clear
4:55 PM 89.6 °F - 46.4 °F 22% 29.65 in 10.0 mi West 16.1 mph 21.9 mph N/A   Clear
5:15 PM 89.6 °F - 46.4 °F 22% 29.64 in 10.0 mi West 12.7 mph 20.7 mph N/A   Clear
5:35 PM 89.6 °F - 48.2 °F 24% 29.63 in 10.0 mi West 13.8 mph 17.3 mph N/A   Clear
5:55 PM 89.6 °F - 48.2 °F 24% 29.63 in 10.0 mi West 11.5 mph 16.1 mph N/A   Clear
6:15 PM 89.6 °F - 50.0 °F 26% 29.62 in 10.0 mi West 8.1 mph - N/A   Clear
6:35 PM 89.6 °F - 50.0 °F 26% 29.62 in 10.0 mi WSW 8.1 mph - N/A   Clear
6:55 PM 89.6 °F - 50.0 °F 26% 29.61 in 10.0 mi Calm Calm - N/A   Clear
7:15 PM 89.6 °F 87.3 °F 53.6 °F 29% 29.62 in 10.0 mi SE 18.4 mph - N/A   Clear
7:35 PM 80.6 °F 82.7 °F 66.2 °F 61% 29.63 in 10.0 mi SE 15.0 mph 21.9 mph N/A   Clear
7:55 PM 78.8 °F - 66.2 °F 65% 29.63 in 10.0 mi SE 15.0 mph 23.0 mph N/A   Clear
8:15 PM 77.0 °F - 66.2 °F 69% 29.63 in 10.0 mi SE 15.0 mph 20.7 mph N/A   Clear
8:35 PM 75.2 °F - 68.0 °F 78% 29.63 in 10.0 mi SE 16.1 mph - N/A   Clear
8:55 PM 73.4 °F - 68.0 °F 83% 29.63 in 10.0 mi SE 16.1 mph 21.9 mph N/A   Clear
9:15 PM 71.6 °F - 64.4 °F 78% 29.63 in 10.0 mi SE 20.7 mph 24.2 mph N/A   Clear
9:35 PM 71.6 °F - 64.4 °F 78% 29.63 in 10.0 mi SSE 12.7 mph 20.7 mph N/A   Clear
9:55 PM 71.6 °F - 64.4 °F 78% 29.63 in 10.0 mi SSE 13.8 mph 20.7 mph N/A   Clear
10:15 PM 71.6 °F - 66.2 °F 83% 29.63 in 10.0 mi SSE 15.0 mph 24.2 mph N/A   Clear
10:35 PM 71.6 °F - 68.0 °F 88% 29.64 in 10.0 mi SSE 18.4 mph 27.6 mph N/A   Clear
10:55 PM 71.6 °F - 68.0 °F 88% 29.65 in 10.0 mi SSE 19.6 mph 24.2 mph N/A   Clear
11:15 PM 71.6 °F - 68.0 °F 88% 29.64 in 10.0 mi SSE 18.4 mph 28.8 mph N/A   Clear
11:35 PM 71.6 °F - 68.0 °F 88% 29.64 in 10.0 mi SSE 19.6 mph 26.5 mph N/A   Clear
11:55 PM 71.6 °F - 68.0 °F 88% 29.64 in 10.0 mi SSE 17.3 mph 25.3 mph N/A   Clear